2019-072F

Last updated on Thu Nov 14 2019 00:02:04 GMT+0000 (Coordinated Universal Time)

1 44708U 19072F 19317.44001450 -.00000112 00000-0 00000+0 0 9995 2 44708 97.3690 30.0511 0097848 310.8258 107.3332 15.43666802 1575
UTC large
Height (km)
Speed (km/s)
/
Latitude / Longitude
Inclination (degrees)
Orbital Period (minutes)
Azimuth
Elevation
Range (km)
Doppler Factor

Next 0 passes for location: London (51.5072 / 0.1276)

Sorry there are no passes over London.